| time (UTC) | temp F | wind direction | speed MPH | gust MPH | rain 1hr in | rain 24hr in | rain mn in | humidity % | barometer mb |
| 20260510193933 | 55 | 102 | 5.0 | 9.0 | 0.00 | 0.00 | 0.00 | 64 | 1029.6 |
| 20260510193033 | 55 | 104 | 4.0 | 9.0 | 0.00 | 0.00 | 0.00 | 64 | 1029.5 |
| 20260510192133 | 55 | 102 | 5.0 | 8.0 | 0.00 | 0.00 | 0.00 | 64 | 1029.4 |
| 20260510191233 | 55 | 109 | 4.0 | 8.0 | 0.00 | 0.00 | 0.00 | 64 | 1029.2 |
| 20260510185433 | 55 | 106 | 4.0 | 7.0 | 0.00 | 0.00 | 0.00 | 64 | 1029.1 |
| 20260510184533 | 55 | 108 | 4.0 | 7.0 | 0.00 | 0.00 | 0.00 | 64 | 1029.1 |
| 20260510183633 | 55 | 104 | 5.0 | 9.0 | 0.00 | 0.00 | 0.00 | 64 | 1029.0 |
| 20260510182733 | 55 | 101 | 5.0 | 9.0 | 0.00 | 0.00 | 0.00 | 64 | 1028.9 |
| 20260510181833 | 55 | 109 | 5.0 | 8.0 | 0.00 | 0.00 | 0.00 | 64 | 1028.8 |
| 20260510175133 | 55 | 109 | 6.0 | 9.0 | 0.00 | 0.00 | 0.00 | 64 | 1028.8 |
| 20260510174232 | 55 | 109 | 4.0 | 8.0 | 0.00 | 0.00 | 0.00 | 63 | 1028.8 |
| 20260510172433 | 56 | 112 | 4.0 | 9.0 | 0.00 | 0.00 | 0.00 | 63 | 1028.9 |
| 20260510170632 | 56 | 108 | 6.0 | 12.0 | 0.00 | 0.00 | 0.00 | 63 | 1028.9 |
| 20260510163932 | 56 | 102 | 7.0 | 12.0 | 0.00 | 0.00 | 0.00 | 63 | 1028.9 |
| 20260510163032 | 56 | 103 | 5.0 | 11.0 | 0.00 | 0.00 | 0.00 | 63 | 1029.0 |
| 20260510162132 | 56 | 107 | 6.0 | 11.0 | 0.00 | 0.00 | 0.00 | 64 | 1029.2 |
| 20260510154532 | 56 | 110 | 5.0 | 10.0 | 0.00 | 0.00 | 0.00 | 64 | 1029.4 |
| 20260510153632 | 56 | 107 | 5.0 | 9.0 | 0.00 | 0.00 | 0.00 | 64 | 1029.5 |
| 20260510152732 | 56 | 102 | 7.0 | 12.0 | 0.00 | 0.00 | 0.00 | 64 | 1029.5 |
| 20260510150932 | 55 | 106 | 5.0 | 9.0 | 0.00 | 0.00 | 0.00 | 64 | 1029.4 |
| 20260510150032 | 55 | 104 | 4.0 | 9.0 | 0.00 | 0.00 | 0.00 | 63 | 1029.4 |
| 20260510145132 | 55 | 112 | 3.0 | 8.0 | 0.00 | 0.00 | 0.00 | 63 | 1029.4 |
| 20260510144232 | 55 | 111 | 3.0 | 7.0 | 0.00 | 0.00 | 0.00 | 63 | 1029.4 |
| 20260510143332 | 55 | 111 | 3.0 | 7.0 | 0.00 | 0.00 | 0.00 | 63 | 1029.4 |
| 20260510142432 | 55 | 112 | 3.0 | 6.0 | 0.00 | 0.00 | 0.00 | 63 | 1029.4 |
| 20260510141532 | 55 | 104 | 3.0 | 6.0 | 0.00 | 0.00 | 0.00 | 63 | 1029.4 |
| 20260510135732 | 56 | 110 | 3.0 | 7.0 | 0.00 | 0.00 | 0.00 | 63 | 1029.5 |
| 20260510134834 | 56 | 109 | 4.0 | 8.0 | 0.00 | 0.00 | 0.00 | 62 | 1029.6 |
| 20260510133932 | 56 | 109 | 4.0 | 8.0 | 0.00 | 0.00 | 0.00 | 62 | 1029.5 |
| 20260510131232 | 56 | 111 | 3.0 | 6.0 | 0.00 | 0.00 | 0.00 | 62 | 1029.6 |
| 20260510130332 | 56 | 112 | 3.0 | 7.0 | 0.00 | 0.00 | 0.00 | 61 | 1029.6 |
| 20260510125434 | 56 | 111 | 4.0 | 7.0 | 0.00 | 0.00 | 0.00 | 61 | 1029.6 |
| 20260510123632 | 56 | 115 | 4.0 | 7.0 | 0.00 | 0.00 | 0.00 | 60 | 1029.6 |
| 20260510122732 | 56 | 120 | 3.0 | 7.0 | 0.00 | 0.00 | 0.00 | 59 | 1029.8 |
| 20260510121832 | 56 | 116 | 3.0 | 6.0 | 0.00 | 0.00 | 0.00 | 59 | 1029.8 |
| 20260510120032 | 56 | 116 | 5.0 | 9.0 | 0.00 | 0.00 | 0.00 | 58 | 1029.6 |
| 20260510115132 | 56 | 113 | 5.0 | 8.0 | 0.00 | 0.00 | 0.00 | 58 | 1029.5 |
| 20260510114232 | 56 | 113 | 4.0 | 9.0 | 0.00 | 0.00 | 0.00 | 58 | 1029.4 |
| 20260510113332 | 56 | 120 | 2.0 | 4.0 | 0.00 | 0.00 | 0.00 | 57 | 1029.4 |
| 20260510112432 | 56 | 113 | 3.0 | 7.0 | 0.00 | 0.00 | 0.00 | 57 | 1029.5 |
| 20260510111531 | 56 | 115 | 3.0 | 6.0 | 0.00 | 0.00 | 0.00 | 57 | 1029.5 |
| 20260510110632 | 56 | 114 | 3.0 | 7.0 | 0.00 | 0.00 | 0.00 | 56 | 1029.4 |
| 20260510105732 | 56 | 113 | 3.0 | 6.0 | 0.00 | 0.00 | 0.00 | 56 | 1029.3 |
| 20260510104832 | 56 | 121 | 2.0 | 4.0 | 0.00 | 0.00 | 0.00 | 56 | 1029.4 |
| 20260510103932 | 57 | 162 | 1.0 | 3.0 | 0.00 | 0.00 | 0.00 | 56 | 1029.5 |
| 20260510102132 | 57 | 168 | 1.0 | 2.0 | 0.00 | 0.00 | 0.00 | 56 | 1029.4 |
| 20260510101231 | 57 | 168 | 2.0 | 4.0 | 0.00 | 0.00 | 0.00 | 56 | 1029.4 |
| 20260510100331 | 58 | 168 | 1.0 | 4.0 | 0.00 | 0.00 | 0.00 | 56 | 1029.5 |
| 20260510095432 | 58 | 168 | 0.0 | 2.0 | 0.00 | 0.00 | 0.00 | 56 | 1029.5 |
| 20260510094531 | 58 | 168 | 1.0 | 2.0 | 0.00 | 0.00 | 0.00 | 56 | 1029.4 |
| 20260510093631 | 58 | 168 | 1.0 | 2.0 | 0.00 | 0.00 | 0.00 | 56 | 1029.3 |
| 20260510091832 | 58 | 167 | 0.0 | 1.0 | 0.00 | 0.00 | 0.00 | 56 | 1029.2 |
| 20260510090931 | 59 | 167 | 0.0 | 2.0 | 0.00 | 0.00 | 0.00 | 56 | 1029.0 |
| 20260510090032 | 59 | 168 | 1.0 | 4.0 | 0.00 | 0.00 | 0.00 | 56 | 1028.9 |
| 20260510085131 | 59 | 185 | 2.0 | 4.0 | 0.00 | 0.00 | 0.00 | 56 | 1028.8 |
| 20260510084231 | 59 | 186 | 2.0 | 5.0 | 0.00 | 0.00 | 0.00 | 56 | 1028.9 |
| 20260510083331 | 59 | 190 | 2.0 | 5.0 | 0.00 | 0.00 | 0.00 | 56 | 1028.8 |
| 20260510082431 | 59 | 203 | 2.0 | 5.0 | 0.00 | 0.00 | 0.00 | 56 | 1028.7 |
| 20260510081531 | 59 | 203 | 3.0 | 6.0 | 0.00 | 0.00 | 0.00 | 56 | 1028.6 |
| 20260510080631 | 60 | 207 | 3.0 | 6.0 | 0.00 | 0.00 | 0.00 | 55 | 1028.6 |
| 20260510075731 | 60 | 214 | 2.0 | 6.0 | 0.00 | 0.00 | 0.00 | 55 | 1028.5 |
| 20260510074831 | 60 | 238 | 1.0 | 4.0 | 0.00 | 0.00 | 0.00 | 54 | 1028.3 |
| 20260510073031 | 60 | 250 | 3.0 | 4.0 | 0.00 | 0.00 | 0.00 | 53 | 1028.3 |
| 20260510072131 | 61 | 253 | 2.0 | 7.0 | 0.00 | 0.00 | 0.00 | 53 | 1028.2 |
| 20260510071231 | 61 | 261 | 3.0 | 6.0 | 0.00 | 0.00 | 0.00 | 53 | 1028.2 |
| 20260510070331 | 61 | 242 | 3.0 | 7.0 | 0.00 | 0.00 | 0.00 | 53 | 1028.2 |
| 20260510065431 | 61 | 241 | 4.0 | 8.0 | 0.00 | 0.00 | 0.00 | 52 | 1028.2 |
| 20260510064531 | 62 | 222 | 5.0 | 8.0 | 0.00 | 0.00 | 0.00 | 51 | 1028.2 |
| 20260510063631 | 63 | 238 | 5.0 | 10.0 | 0.00 | 0.00 | 0.00 | 51 | 1028.0 |
| 20260510062731 | 62 | 245 | 3.0 | 7.0 | 0.00 | 0.00 | 0.00 | 52 | 1028.0 |
| 20260510061831 | 63 | 246 | 2.0 | 5.0 | 0.00 | 0.00 | 0.00 | 52 | 1027.9 |
| 20260510060031 | 64 | 270 | 3.0 | 8.0 | 0.00 | 0.00 | 0.00 | 49 | 1027.9 |
| 20260510054231 | 65 | 265 | 4.0 | 8.0 | 0.00 | 0.00 | 0.00 | 49 | 1027.9 |
| 20260510053331 | 63 | 255 | 3.0 | 7.0 | 0.00 | 0.00 | 0.00 | 51 | 1027.9 |
| 20260510052431 | 63 | 243 | 3.0 | 7.0 | 0.00 | 0.00 | 0.00 | 51 | 1027.9 |
| 20260510050631 | 64 | 254 | 2.0 | 7.0 | 0.00 | 0.00 | 0.00 | 49 | 1027.9 |
| 20260510045731 | 64 | 249 | 3.0 | 7.0 | 0.00 | 0.00 | 0.00 | 51 | 1027.9 |
| 20260510043931 | 64 | 269 | 1.0 | 3.0 | 0.00 | 0.00 | 0.00 | 50 | 1028.0 |
| 20260510043031 | 64 | 293 | 0.0 | 3.0 | 0.00 | 0.00 | 0.00 | 51 | 1028.0 |
| 20260510042131 | 64 | 320 | 1.0 | 4.0 | 0.00 | 0.00 | 0.00 | 50 | 1028.0 |
| 20260510041231 | 64 | 307 | 3.0 | 6.0 | 0.00 | 0.00 | 0.00 | 47 | 1028.0 |
| 20260510040331 | 64 | 315 | 2.0 | 6.0 | 0.00 | 0.00 | 0.00 | 48 | 1028.0 |
| 20260510032731 | 67 | 352 | 1.0 | 8.0 | 0.00 | 0.00 | 0.00 | 44 | 1028.3 |
| 20260510031837 | 65 | 126 | 0.0 | 2.0 | 0.00 | 0.00 | 0.00 | 48 | 1028.4 |
| 20260510030030 | 63 | 25 | 1.0 | 4.0 | 0.00 | 0.00 | 0.00 | 49 | 1028.6 |
| 20260510024230 | 63 | 230 | 1.0 | 2.0 | 0.00 | 0.00 | 0.00 | 53 | 1028.9 |
| 20260510021530 | 63 | 15 | 1.0 | 4.0 | 0.00 | 0.00 | 0.00 | 49 | 1029.5 |
| 20260510020630 | 63 | 163 | 1.0 | 4.0 | 0.00 | 0.00 | 0.00 | 53 | 1029.5 |
| 20260510015731 | 63 | 36 | 1.0 | 3.0 | 0.00 | 0.00 | 0.00 | 53 | 1029.7 |
| 20260510014830 | 61 | 37 | 2.0 | 5.0 | 0.00 | 0.00 | 0.00 | 51 | 1029.7 |
| 20260510012131 | 61 | 78 | 1.0 | 4.0 | 0.00 | 0.00 | 0.00 | 52 | 1029.8 |
| 20260510011230 | 60 | 29 | 1.0 | 3.0 | 0.00 | 0.00 | 0.00 | 52 | 1029.8 |
| 20260510010330 | 60 | 60 | 1.0 | 4.0 | 0.00 | 0.00 | 0.00 | 52 | 1029.9 |
| 20260510005430 | 60 | 58 | 2.0 | 6.0 | 0.00 | 0.00 | 0.00 | 53 | 1029.9 |
| 20260510001830 | 60 | 111 | 4.0 | 9.0 | 0.00 | 0.00 | 0.00 | 56 | 1029.8 |
| 20260510000031 | 59 | 100 | 3.0 | 7.0 | 0.00 | 0.00 | 0.00 | 57 | 1029.9 |
| 20260509235130 | 58 | 93 | 2.0 | 5.0 | 0.00 | 0.00 | 0.00 | 59 | 1029.9 |
| 20260509234230 | 57 | 103 | 2.0 | 4.0 | 0.00 | 0.00 | 0.00 | 62 | 1030.0 |
| 20260509233330 | 56 | 90 | 1.0 | 4.0 | 0.00 | 0.00 | 0.00 | 65 | 1029.9 |
| 20260509232430 | 56 | 17 | 0.0 | 1.0 | 0.00 | 0.00 | 0.00 | 66 | 1029.9 |
| 20260509231530 | 54 | 0 | 0.0 | 0.0 | 0.00 | 0.00 | 0.00 | 66 | 1029.9 |
| 20260509230630 | 53 | 17 | 1.0 | 2.0 | 0.00 | 0.00 | 0.00 | 65 | 1029.8 |
| 20260509225730 | 53 | 17 | 1.0 | 2.0 | 0.00 | 0.00 | 0.00 | 65 | 1029.7 |
| 20260509224830 | 52 | 13 | 1.0 | 2.0 | 0.00 | 0.00 | 0.00 | 65 | 1029.8 |
| 20260509223930 | 52 | 350 | 1.0 | 2.0 | 0.00 | 0.00 | 0.00 | 65 | 1029.7 |
| 20260509222130 | 52 | 319 | 0.0 | 2.0 | 0.00 | 0.00 | 0.00 | 65 | 1029.4 |
| 20260509221230 | 52 | 355 | 0.0 | 1.0 | 0.00 | 0.00 | 0.00 | 65 | 1029.4 |
| 20260509220330 | 51 | 0 | 0.0 | 0.0 | 0.00 | 0.00 | 0.00 | 65 | 1029.2 |
| 20260509214530 | 51 | 30 | 1.0 | 2.0 | 0.00 | 0.00 | 0.00 | 65 | 1028.9 |
| 20260509212730 | 51 | 30 | 1.0 | 3.0 | 0.00 | 0.00 | 0.00 | 65 | 1028.9 |
| 20260509211830 | 51 | 30 | 1.0 | 2.0 | 0.00 | 0.00 | 0.00 | 65 | 1028.7 |
| 20260509210930 | 50 | 31 | 1.0 | 2.0 | 0.00 | 0.00 | 0.00 | 65 | 1028.7 |
| 20260509210029 | 50 | 77 | 1.0 | 3.0 | 0.00 | 0.00 | 0.00 | 65 | 1028.7 |
| 20260509205130 | 50 | 130 | 0.0 | 3.0 | 0.00 | 0.00 | 0.00 | 65 | 1028.6 |
| 20260509204230 | 50 | 129 | 0.0 | 2.0 | 0.00 | 0.00 | 0.00 | 65 | 1028.5 |
| 20260509203330 | 49 | 129 | 0.0 | 2.0 | 0.00 | 0.00 | 0.00 | 65 | 1028.4 |
| 20260509202429 | 49 | 0 | 0.0 | 0.0 | 0.00 | 0.00 | 0.00 | 65 | 1028.4 |
| 20260509201529 | 49 | 129 | 1.0 | 2.0 | 0.00 | 0.00 | 0.00 | 65 | 1028.2 |
| 20260509200629 | 49 | 130 | 1.0 | 2.0 | 0.00 | 0.00 | 0.00 | 65 | 1028.1 |
| 20260509195730 | 49 | 130 | 1.0 | 2.0 | 0.00 | 0.00 | 0.00 | 65 | 1028.1 |